Location: *
(46.3500°N, 10.9000°E)
Time: 22:57:18
(UTC+00:00)

Explorer 7 - Pass Details

Date: 24 April 2021
Orbit: 484 x 677 km, 50.3° (Epoch: 06 May)

Event Time Altitude Azimuth Distance (km) Brightness Sun altitude
Rises 22:33:03 0° 293° (WNW) 2,751 10.8 -29.7°
Reaches altitude 10° 22:35:15 10° 292° (WNW) 1,885 9.9 -29.8°
Enters shadow 22:36:18 17° 291° (WNW) 1,479 9.3 -29.9°
Maximum altitude 22:39:33 78° 208° (SSW) 619 - -30.0°
Drops below altitude 10° 22:44:09 10° 121° (ESE) 2,000 - -30.1°
Sets 22:46:32 0° 120° (ESE) 2,934 - -30.1°
